アトラス彗星

C/2021 P4 ( ATLAS )

English version
Home page
Updated on October 28, 2021

---------------------------------------------------------------------

・ プロフィール

発見日 2021年8月10日
発見光度 19.4等
発見者 Asteroid Terrestrial-Impact Last Alert System (ATLAS) search program

・ 写真集

・ 軌道要素

Epoch 2022 Aug. 9.0 TT = JDT 2459800.5
T 2022 July 30.79709 TT                                 Rudenko
q   1.0834016            (2000.0)            P               Q
z  +0.0035581      Peri.  175.75503     -0.96745336     -0.18625383
 +/-0.0006475      Node   348.12142     +0.20068090     -0.15235421
e   0.9961451      Incl.   56.32579     +0.15414658     -0.97061718
From 172 observations 2021 Aug. 10-Sept. 2, mean residual 1".0.

・ 星図

・ 光度変化

        m1 = 9.0 + 5 logΔ + 10.0 log r

---------------------------------------------------------------------

軌道要素はM.P.E.C. 2021-R75に掲載されたものです。
星図はステラナビゲータ Ver.10 (アストロアーツ) で作成したものです。
光度グラフはComet for Windowsで作成したものです。

---------------------------------------------------------------------

Copyright(C) Seiichi Yoshida (comet@aerith.net). All rights reserved.